Regional Weather Roundup
Issued by NWS Goodland, KS

Home | Current Version | Previous Version | Text Only | Print | Product List | Glossary On
Versions: 1 2 3 4 5 6 7 8 9 10 11 12 13 14 15 16 17 18 19 20 21 22 23 24 25 26 27 28 29 30 31 32 33 34 35 36 37 38 39 40 41 42 43 44 45 46 47 48 49 50
000
ASUS43 KGLD 291808
RWRGLD

GOODLAND FORECAST AREA HOURLY WEATHER ROUNDUP
NATIONAL WEATHER SERVICE GOODLAND KS
1200 PM MDT FRI AUG 29 2014

...OFFICIAL OBSERVATIONS...

CITY           SKY/WX    TMP DP  RH WIND       PRES   REMARKS
GOODLAND KS    SUNNY     81  52  36 N13       29.98F
HILL CITY KS   SUNNY     80  58  46 NW9       29.89F
IMPERIAL NEB   SUNNY     81  54  39 NW14      29.94F
MCCOOK NEB     SUNNY     81  55  40 N5        29.91F
AKRON CO       SUNNY     76  51  41 W10G17    30.06F
BURLINGTON CO  SUNNY     82  44  26 N14G21    30.01F
LIMON CO       SUNNY     77  44  30 N12       30.11F
$$

...UNOFFICIAL OBSERVATIONS...

CITY           SKY/WX    TMP DP  RH WIND       PRES   REMARKS
COLBY KS       SUNNY     81  57  44 NW10      29.96S
GOVE KS          N/A     81  32  17 CALM        N/A
NORTON KS      SUNNY     81  45  28 NW8       29.88
SHARON SPRINGS   N/A     82  51  33 N9G20       N/A
WAKEENEY KS      N/A     79  51  36 MISG        N/A
KIT CARSON CO    N/A     83  47  28 N6G13       N/A
YUMA CO          N/A     80  50  34 N7G14       N/A
$$



USA.gov is the U.S. government's official web portal to all federal, state and local government web resources and services.